User: anonymous   Login
Location: Bonny Doon Airfield
(37.0704°N, 122.1252°W)
Time: 06:21:38
(UTC-07:00)
Language:

Hubble Space Telescope - Orbit

View from above orbital plane
View from above orbital plane
View from above satellite
View from above satellite

Ground track
Ground track

The orbit data is extracted from the following two-line orbital elements,

1 20580U 90037B   17289.39977656 +.00000723 +00000-0 +33600-4 0  9991
2 20580 028.4698 286.5135 0002868 041.7930 072.9021 15.08887756308526
Epoch (UTC): 16 October 2017 09:35:40
Eccentricity: 0.0002868
inclination: 28.4698°
perigee height: 537 km
apogee height: 541 km
right ascension of ascending node: 286.5135°
argument of perigee: 41.7930°
revolutions per day: 15.08887756
mean anomaly at epoch: 72.9021°
orbit number at epoch: 30852

The dashed part of the orbit path shows where the satellite is in the earth's shadow,  

DLR